Weather History for KFNT - March, 2013

Change the Weather History Date:

Monday, March 11, 2013

  Actual Average Record
Temperature  
Mean Temperature 47 °F 32 °F  
Max Temperature 57 °F 41 °F 68 °F (1973)
Min Temperature 37 °F 23 °F -7 °F (1960)
Degree Days  
Heating Degree Days 18 33  
Month to date heating degree days 374 381  
Since 1 July heating degree days 5027 5469  
Cooling Degree Days 0 0  
Month to date cooling degree days 0 0  
Year to date cooling degree days 0 0  
Moisture  
Dew Point 43 °F    
Average Humidity 72    
Maximum Humidity 93    
Minimum Humidity 51    
Precipitation  
Precipitation 0.31 in 0.05 in 0.64 in (1957)
Month to date precipitation 0.36 0.61  
Year to date precipitation 5.82 3.72  
Snow  
Snow 0.00 in 0.20 in 3.70 in (1950)
Month to date snowfall 0.5 3.0  
Since 1 July snowfall 39.0 41.6  
Snow Depth 0.00 in    
Sea Level Pressure  
Sea Level Pressure 29.61 in    
Wind  
Wind Speed 12 mph (SSW)    
Max Wind Speed 22 mph    
Max Gust Speed 29 mph    
Visibility 7 miles    
Events Rain    
T = Trace of Precipitation, MM = Missing Value Source: NWS Daily Summary

Daily Weather History Graph

Daily Weather History Graph

Search for Another Location

Airport or City:

Trip Planner

Search our weather history database for the weather conditions in past years. The results will help you decide how hot, cold, wet, or windy it might be!

Date:

Astronomy

Mar. 11, 2013 Rise Set
Actual Time 7:53 AM EDT 7:36 PM EDT
Civil Twilight 7:25 AM EDT 8:05 PM EDT
Nautical Twilight 6:52 AM EDT 8:38 PM EDT
Astronomical Twilight 6:19 AM EDT 9:11 PM EDT
Moon 7:26 AM EDT (3/11) 7:49 PM EDT (3/11)
Length of Visible Light 12h 39m
Length of Day
11h 43m
Waning Crescent, 0% of the Moon is Illuminated
Mar 11
Waning Crescent
Mar 11
New
Mar 19
First Quarter
Mar 27
Full
Apr 3
Last Quarter

Hourly Weather History & Observations

Time (EDT) Temp. Windchill Dew Point Humidity Pressure Visibility Wind Dir Wind Speed Gust Speed Precip Events Conditions
12:53 AM 57.0 °F - 37.9 °F 49% 29.78 in 10.0 mi South 12.7 mph 24.2 mph 0.00 in Rain Light Rain
1:53 AM 57.0 °F - 39.9 °F 53% 29.75 in 10.0 mi South 12.7 mph 20.7 mph 0.00 in   Overcast
2:53 AM 55.9 °F - 41.0 °F 57% 29.71 in 10.0 mi South 10.4 mph - N/A   Overcast
3:53 AM 57.0 °F - 39.9 °F 53% 29.69 in 10.0 mi South 11.5 mph - N/A   Overcast
4:53 AM 55.0 °F - 42.1 °F 62% 29.68 in 10.0 mi South 12.7 mph 20.7 mph N/A   Overcast
5:53 AM 55.0 °F - 43.0 °F 64% 29.68 in 10.0 mi South 15.0 mph 21.9 mph N/A   Overcast
6:53 AM 54.0 °F - 43.0 °F 66% 29.68 in 10.0 mi South 11.5 mph - N/A   Overcast
7:16 AM 53.6 °F - 44.6 °F 72% 29.68 in 10.0 mi South 13.8 mph 26.5 mph N/A   Overcast
7:53 AM 53.1 °F - 45.0 °F 74% 29.68 in 10.0 mi South 15.0 mph 21.9 mph N/A   Overcast
8:53 AM 52.0 °F - 46.0 °F 80% 29.69 in 7.0 mi SSW 11.5 mph 20.7 mph 0.00 in Rain Light Rain
9:12 AM 50.0 °F - 46.4 °F 87% 29.68 in 2.0 mi South 8.1 mph - 0.01 in Rain Light Rain
9:27 AM 50.0 °F - 46.4 °F 87% 29.67 in 2.0 mi South 9.2 mph - 0.02 in Rain Light Rain
9:53 AM 50.0 °F - 46.9 °F 89% 29.67 in 2.0 mi South 9.2 mph - 0.02 in Rain Light Rain
10:18 AM 50.0 °F - 46.4 °F 87% 29.66 in 4.0 mi South 6.9 mph - 0.01 in Rain Light Rain
10:53 AM 50.0 °F - 46.9 °F 89% 29.66 in 5.0 mi South 9.2 mph - 0.02 in   Overcast
11:25 AM 50.0 °F - 46.4 °F 87% 29.65 in 2.0 mi South 9.2 mph - N/A   Overcast
11:28 AM 50.0 °F - 46.4 °F 87% 29.65 in 1.8 mi South 8.1 mph - 0.00 in Rain Light Rain
11:44 AM 50.0 °F - 46.4 °F 87% 29.64 in 2.0 mi South 8.1 mph - 0.01 in Rain Light Rain
11:53 AM 50.0 °F - 46.9 °F 89% 29.64 in 2.5 mi South 8.1 mph - 0.01 in   Overcast
12:02 PM 50.0 °F - 48.2 °F 94% 29.63 in 2.0 mi South 5.8 mph - N/A   Overcast
12:36 PM 50.0 °F - 46.4 °F 87% 29.60 in 4.0 mi South 10.4 mph - 0.01 in   Overcast
12:53 PM 51.1 °F - 48.0 °F 89% 29.60 in 4.0 mi South 8.1 mph - 0.01 in   Overcast
1:53 PM 51.1 °F - 46.9 °F 86% 29.56 in 10.0 mi South 9.2 mph - N/A   Overcast
2:21 PM 51.8 °F - 46.4 °F 82% 29.54 in 9.0 mi SSE 12.7 mph - 0.00 in Rain Light Rain
2:41 PM 51.8 °F - 46.4 °F 82% 29.51 in 6.0 mi SSE 13.8 mph 21.9 mph 0.01 in Rain Light Rain
2:53 PM 50.0 °F - 46.9 °F 89% 29.52 in 8.0 mi South 9.2 mph - 0.01 in Rain Light Rain
3:53 PM 48.9 °F - 46.0 °F 90% 29.48 in 4.0 mi SSE 10.4 mph - 0.11 in Rain Light Rain
4:12 PM 48.2 °F - 46.4 °F 93% 29.46 in 4.0 mi SSE 5.8 mph - 0.04 in Rain Rain
4:29 PM 48.2 °F - 46.4 °F 93% 29.46 in 4.0 mi Calm Calm - 0.06 in Rain Light Rain
4:41 PM 48.2 °F - 46.4 °F 93% 29.46 in 6.0 mi SSE 4.6 mph - 0.06 in Rain Light Rain
4:53 PM 48.9 °F - 46.0 °F 90% 29.48 in 5.0 mi WSW 8.1 mph - 0.07 in Rain Light Rain
4:57 PM 48.2 °F - 46.4 °F 93% 29.48 in 4.0 mi WSW 6.9 mph - 0.00 in Rain Light Rain
5:15 PM 48.2 °F - 46.4 °F 93% 29.47 in 4.0 mi WSW 9.2 mph - 0.03 in Rain Light Rain
5:53 PM 48.9 °F - 45.0 °F 86% 29.50 in 10.0 mi SW 12.7 mph - 0.05 in Rain Light Rain
6:37 PM 48.2 °F - 42.8 °F 82% 29.51 in 10.0 mi WSW 18.4 mph 25.3 mph 0.00 in   Overcast
6:53 PM 48.0 °F - 41.0 °F 77% 29.52 in 10.0 mi WSW 15.0 mph 27.6 mph 0.00 in   Overcast
7:53 PM 45.0 °F 38.9 °F 37.0 °F 74% 29.55 in 10.0 mi WSW 12.7 mph 20.7 mph N/A   Mostly Cloudy
8:53 PM 42.1 °F 36.6 °F 36.0 °F 79% 29.58 in 10.0 mi West 9.2 mph - N/A   Overcast
9:53 PM 41.0 °F 32.8 °F 34.0 °F 76% 29.60 in 10.0 mi WSW 16.1 mph 24.2 mph 0.01 in   Overcast
10:40 PM 39.2 °F 30.2 °F 32.0 °F 75% 29.62 in 10.0 mi SW 17.3 mph 25.3 mph N/A   Overcast
10:53 PM 39.0 °F 30.6 °F 30.9 °F 73% 29.63 in 10.0 mi SW 15.0 mph 24.2 mph N/A   Overcast
11:19 PM 39.2 °F 29.6 °F 30.2 °F 70% 29.63 in 10.0 mi SW 19.6 mph 26.5 mph N/A   Overcast
11:53 PM 37.9 °F 30.5 °F 32.0 °F 79% 29.66 in 10.0 mi SW 11.5 mph 28.8 mph N/A   Overcast